CAPE
1405 1343 2511 1870 1926 1037 1452 1756 1576 1344 1112 990 910 966 714 622 610 470 574 1326 1651 2223 2440 2322 2493 2503 2555 2761 2810 2766 2742 2584 2561 2408 2285 2329 2261 2230 2197 2107 2038 1948 1983
1366 1956 2057 1667 1852 1594 1080 1352 1693 1248 1225 1079 1050 1167 909 708 763 831 525 1074 1725 2364 2462 2291 2586 2840 2892 2823 2805 2648 2261 2260 2285 2240 2465 2330 2156 2066 1886 2010 1996 1961 1990
1525 1913 2242 2427 1550 1744 2264 1962 1763 1671 1457 1063 1024 758 619 689 791 1174 1110 1081 1276 2026 2225 2242 2319 2487 2363 2294 2608 2383 2425 2058 2010 2378 2023 2272 2240 1999 1908 1752 1650 2094 2014
1650 2088 1955 1555 1142 1825 1160 1522 1375 2646 1713 1347 1145 1139 647 590 789 1076 1365 1354 1256 1300 2130 2722 2846 2778 2053 2355 2419 2517 2553 2685 2587 2510 2368 1931 1749 1743 1779 1809 1861 1800 1993
1459 1904 1396 1296 1684 1657 1404 1443 1457 1798 1702 2021 1170 1165 1145 1026 819 570 880 1440 1201 1204 1314 2220 2725 2810 1934 1912 2215 2444 2700 2857 2746 2537 2279 1900 1752 1599 1582 1675 1701 1801 1868
1320 2020 1208 1357 1249 1148 922 1306 1235 1255 1251 1562 1146 953 1078 1001 710 576 850 1200 1073 1420 1190 1484 1782 1478 2253 2115 2699 2688 2575 2788 2768 2490 2460 2096 2042 1930 1851 1819 1600 1255 1512
1415 1894 1101 1470 1106 975 1090 1792 1847 1036 1348 1216 1827 1819 1536 1276 697 664 760 1013 1195 1501 1349 1658 1937 1614 1776 2573 2907 2870 2370 2243 2089 2342 1933 2250 2136 2000 1975 1759 1883 1610 1246
1765 1970 1638 1407 1806 1615 2121 2290 2252 1554 1717 1443 2126 2024 1739 1048 1193 1065 722 829 1109 1315 1360 1544 1564 1723 1831 1672 1755 2455 2681 2267 1775 1418 1425 1464 1480 1841 1788 1560 1711 1783 1778
1406 1811 1912 1850 2092 2078 1408 1904 1634 1835 1674 1530 1615 1386 1423 1087 1053 1239 1461 1513 1217 1308 1296 1373 1745 1904 2037 1833 1558 1711 2505 2111 1622 1289 1439 1267 1101 1511 1458 1294 1597 1585 1578
1405 1751 2088 2210 2511 1627 1933 1298 1557 1927 2131 2503 1227 942 1021 1251 1982 1105 1265 1318 1251 1368 1520 1452 1650 1987 1915 1762 1851 1516 2211 1944 1981 1522 1297 1085 1027 1308 1330 1279 1404 1459 1341
1808 2093 2269 2461 2434 1516 1988 1665 1566 1878 1981 1771 1173 1013 1016 959 1079 741 680 1510 1229 1216 1199 1480 1418 1658 1595 1720 1390 1524 1718 1532 1581 1745 1446 913 826 1066 1125 1101 1135 1092 1014
1030 2128 2118 2497 2455 2141 1961 1639 1838 1836 2067 1974 2425 1011 899 1458 1602 1160 926 1155 1070 1180 1290 1319 1497 1349 1329 1335 1653 1690 1827 1496 1330 1398 1242 730 663 720 1035 1028 974 1164 1023
872 1748 2351 2406 2243 2858 1609 1861 2129 1898 1847 1985 1990 1474 1072 1162 1411 1109 1227 1236 1455 1326 1436 1237 1520 1652 1179 1262 1379 1535 1333 818 825 847 622 616 463 282 457 758 966 863 1116
1197 1290 2061 1845 2105 2073 2111 2636 2809 1619 1758 1773 1933 2134 1381 1215 1378 1284 1234 1851 1925 1151 1170 1455 1447 1283 1391 1485 1526 1608 1501 509 479 424 163 165 12 1 2 43 236 633 906
1076 1740 2200 2167 1968 2285 2251 2301 3236 1833 2063 1993 1886 2146 2055 2363 2883 2029 1543 1369 1332 1231 917 1726 1097 1686 1455 1526 1713 1918 1945 433 361 113 9 0 0 0 1 1 1 1 1
1608 1702 2276 2272 2435 2424 1959 2853 2294 1919 2317 1770 1577 2128 2482 2109 2315 3020 1665 1652 1468 1334 1689 1211 1394 1830 1952 1804 1687 2092 2141 360 72 1 0 0 0 1 1 1 1 1 1
1821 1911 2120 1977 1925 1890 2102 2653 2805 2065 2185 1956 1739 2073 1763 2238 3147 2015 1694 1769 1491 1382 1336 1248 1550 1836 2229 2095 1699 1814 1829 1712 686 0 0 0 0 0 0 0 0 0 0
2093 2156 2086 1790 2092 1890 2000 2110 1971 1584 2079 1993 1855 1918 2115 1779 2687 2359 2682 3138 3523 2300 1980 2627 2902 3482 2346 2026 1786 1320 938 1246 1243 0 0 0 0 0 0 0 0 0 0
2242 2202 2300 2269 2303 2367 2213 2409 2361 2137 2223 1922 1658 1792 1800 1725 1909 1797 2362 2090 1646 1894 3334 2646 1758 2675 1991 1332 1099 1042 946 907 743 0 0 0 0 0 0 0 0 0 0
2321 2358 2383 2425 2383 2151 2220 2193 2100 2382 2406 1827 1716 1874 2196 2265 2186 2053 2391 2511 3165 2158 2280 2294 2517 3178 2647 1279 779 789 380 438 695 323 8 0 0 1 0 0 0 0 0
2346 2509 2586 2605 2587 2446 2000 2137 2197 2076 2250 2471 2511 2528 2576 2416 2014 2047 2624 2662 3081 2637 2739 1916 1551 3210 2169 1702 985 934 789 832 467 402 225 143 6 0 0 0 0 0 0
2654 2608 2683 2658 2523 2063 1238 1063 1131 2367 2563 2787 2777 2688 2693 2292 2025 1503 1232 959 1152 2680 2983 1671 1405 1439 3115 2548 2813 1619 1229 906 377 475 462 744 293 64 92 187 2 0 0
2934 2940 2930 2826 2677 2706 1586 1129 500 1968 2528 2652 2873 2823 2592 1897 1709 2110 1289 427 165 105 396 2302 2227 2137 2675 2780 3353 2330 2284 1424 1046 896 536 592 260 290 114 15 0 0 0
3300 3244 3175 3076 3206 3059 1 0 0 1970 2594 2758 2735 2501 2545 2560 2454 2329 2463 2369 2211 1920 1671 1541 1786 2068 2291 3099 3236 3164 3284 2403 1739 1336 541 707 754 502 217 132 0 0 0
3521 3590 3616 3701 3619 2268 0 0 0 1723 1838 1917 1823 1669 1630 1657 1045 10 990 1488 1696 1723 1329 1300 1183 1385 1040 183 905 3195 2432 2018 1575 1011 383 604 554 473 593 264 208 0 0
3646 3482 3681 3708 2567 886 0 0 0 92 102 54 2 0 0 0 0 0 4 83 312 488 707 979 1430 1010 516 1235 67 1466 2282 1645 1376 2047 418 211 509 337 378 75 80 72 0
CIN
-0 -0 -1 -0 -8 -0 -0 -0 -0 -0 -0 -0 -0 -0 -0 -0 -0 -0 -0 -44 -22 -0 -0 -0 -0 -0 -0 -0 -0 -0 -0 -0 -0 -0 -0 -0 -0 -0 -0 -0 -1 -0 -0
-0 -0 -1 -0 -1 -7 -21 -0 -0 -0 -0 -0 -0 -0 -0 -0 -0 -0 -0 -13 -23 -0 -1 -0 -0 -0 -0 -0 -0 -0 -1 -0 -0 -2 -0 -0 -1 -1 -0 -0 -0 -0 -0
-0 -0 -0 -0 -0 -0 -0 -0 -0 -0 -0 -0 -0 -0 -0 -7 -0 -0 -0 -0 -13 -21 -7 -2 -0 -0 -0 -0 -0 -0 -0 -1 -2 -0 -2 -0 -0 -0 -0 -0 -0 -0 -0
-7 -0 -0 -0 -0 -0 -0 -0 -0 -2 -0 -0 -0 -0 -0 -0 -2 -1 -0 -0 -0 -0 -33 -11 -2 -0 -4 -0 -0 -0 -0 -0 -0 -0 -0 -0 -0 -0 -0 -0 -0 -0 -0
-2 -0 -0 -0 -3 -0 -0 -0 -0 -3 -0 -0 -0 -0 -0 -0 -0 -0 -0 -0 -0 -0 -0 -58 -21 -5 -15 -6 -0 -0 -0 -0 -0 -0 -0 -0 -0 -0 -0 -0 -0 -0 -0
-3 -1 -0 -1 -7 -2 -4 -0 -7 -0 -0 -0 -0 -0 -0 -0 -0 -0 -0 -0 -0 -0 -3 -0 -4 -12 -36 -16 -0 -0 -0 -0 -0 -1 -1 -4 -1 -0 -0 -0 -0 -0 -0
-0 -2 -0 -1 -9 -6 -1 -1 -0 -46 -0 -0 -0 -0 -1 -0 -0 -0 -0 -0 -0 -0 -0 -0 -0 -0 -11 -38 -9 -2 -3 -0 -6 -2 -7 -3 -1 -0 -0 -0 -0 -0 -0
-0 -0 -2 -0 -0 -0 -1 -0 -0 -0 -0 -0 -2 -1 -0 -0 -0 -0 -0 -0 -0 -0 -0 -0 -0 -0 -0 -0 -2 -31 -8 -11 -12 -20 -13 -14 -10 -1 -0 -0 -0 -0 -0
-4 -4 -3 -1 -0 -1 -0 -0 -0 -0 -0 -0 -0 -0 -0 -0 -0 -0 -0 -0 -0 -0 -0 -0 -0 -0 -0 -0 -17 -12 -30 -32 -33 -29 -16 -16 -15 -0 -0 -0 -0 -0 -0
-4 -1 -2 -0 -0 -0 -0 -0 -0 -0 -0 -1 -0 -0 -2 -2 -0 -0 -0 -0 -0 -0 -0 -0 -0 -0 -0 -0 -1 -30 -41 -44 -30 -28 -22 -22 -19 -3 -0 -0 -0 -0 -0
-1 -0 -0 -0 -0 -0 -0 -0 -0 -0 -0 -0 -0 -0 -0 -0 -0 -0 -0 -1 -0 -0 -0 -0 -0 -0 -0 -0 -0 -6 -67 -67 -53 -33 -31 -43 -33 -4 -0 -0 -0 -0 -0
-7 -0 -1 -0 -0 -0 -0 -0 -0 -0 -0 -0 -0 -44 -8 -0 -0 -0 -0 -0 -0 -0 -0 -0 -0 -0 -0 -0 -1 -70 -76 -90 -85 -66 -54 -63 -44 -23 -0 -0 -0 -0 -0
-12 -0 -0 -0 -0 -0 -0 -0 -0 -0 -0 -1 -0 -0 -0 -0 -0 -0 -0 -0 -0 -0 -0 -0 -0 -2 -0 -0 -0 -59 -108 -145 -136 -111 -110 -76 -63 -75 -30 -3 -0 -0 -0
-0 -1 -0 -0 -0 -1 -0 -0 -0 -0 -0 -0 -0 -0 -0 -0 -0 -0 -0 -0 -1 -0 -0 -0 -0 -6 -1 -0 -23 -111 -13 -173 -171 -151 -183 -153 -208 -29 -23 -137 -51 -5 -1
-0 -0 -0 -0 -0 -0 -0 -0 -0 -0 -0 -0 -0 -0 -0 -0 -2 -0 -0 -0 -0 -0 -0 -1 -0 -4 -2 -7 -7 -4 -6 -205 -190 -208 -222 -0 -0 -0 -0 -0 -0 -0 -0
-0 -0 -0 -0 -0 -0 -0 -1 -0 -0 -0 -0 -0 -0 -0 -0 -2 -8 -2 -0 -0 -0 -0 -0 -0 -0 -10 -17 -27 -14 -2 -205 -260 -60 -0 -0 -0 -0 -0 -0 -0 -0 -0
-0 -0 -1 -0 -0 -0 -1 -0 -2 -7 -2 -0 -0 -0 -0 -0 -0 -0 -0 -0 -0 -0 -0 -0 -0 -0 -12 -14 -28 -14 -9 -12 -73 -0 -0 -0 -0 -0 -0 -0 -0 -0 -0
-0 -0 -0 -0 -0 -0 -0 -1 -4 -0 -0 -0 -0 -0 -0 -0 -1 -1 -0 -0 -0 -1 -0 -0 -0 -0 -0 -2 -14 -37 -60 -20 -0 -0 -0 -0 -0 -0 -0 -0 -0 -0 -0
-0 -0 -0 -0 -0 -0 -0 -0 -0 -0 -0 -0 -0 -0 -0 -0 -0 -0 -0 -0 -0 -0 -0 -0 -0 -0 -0 -26 -44 -48 -49 -41 -33 -0 -0 -0 -0 -0 -0 -0 -0 -0 -0
-0 -0 -0 -0 -0 -0 -0 -0 -0 -0 -0 -0 -1 -0 -0 -0 -0 -0 -0 -0 -0 -0 -0 -0 -0 -0 -0 -12 -56 -54 -106 -94 -49 -68 -14 -0 -0 -0 -0 -0 -0 -0 -0
-0 -0 -0 -0 -0 -0 -0 -0 -2 -2 -0 -0 -0 -0 -0 -3 -2 -7 -0 -0 -0 -0 -0 -0 -0 -0 -0 -0 -28 -19 -42 -27 -73 -71 -99 -109 -185 -0 -0 -0 -0 -0 -0
-0 -0 -0 -0 -0 -0 -15 -62 -56 -0 -0 -0 -0 -0 -0 -9 -18 -62 -87 -101 -50 -0 -0 -0 -0 -0 -0 -0 -0 -0 -1 -8 -62 -74 -70 -24 -63 -180 -137 -103 -153 -0 -0
-0 -0 -0 -0 -0 -0 -53 -114 -211 -23 -0 -0 -0 -0 -0 -0 -3 -0 -62 -201 -255 -252 -149 -4 -0 -0 -0 -0 -0 -0 -0 -0 -15 -3 -64 -35 -96 -86 -141 -43 -0 -0 -0
-0 -0 -0 -0 -0 -9 -0 -0 -0 -37 -1 -0 -0 -0 -0 -0 -0 -4 -0 -0 -0 -0 -26 -23 -3 -1 -0 -0 -0 -0 -0 -0 -0 -0 -45 -20 -5 -49 -84 -117 -0 -0 -0
-0 -0 -0 -0 -0 -44 -0 -0 -0 -16 -1 -1 -2 -2 -0 -0 -11 -53 -20 -0 -0 -0 -1 -10 -13 -13 -43 -192 -107 -0 -0 -0 -0 -0 -57 -16 -36 -51 -28 -88 -106 -0 -0
-0 -0 -0 -0 -37 -234 -0 -0 -0 -164 -170 -165 -12 -0 -0 -0 -0 -0 -0 -144 -64 -18 -3 -0 -0 -39 -127 -41 -184 -11 -0 -0 -0 -0 -42 -62 -22 -52 -32 -195 -194 -197 -0
Wind_Speed
5 4 4 4 3 3 4 4 4 3 4 5 5 6 6 5 4 3 3 11 9 11 11 13 13 13 12 12 12 11 10 9 9 9 9 10 8 7 7 7 7 7 7
4 4 5 4 4 4 4 4 4 4 5 4 6 6 6 6 5 3 5 9 10 10 9 9 10 11 11 12 12 11 10 10 9 9 9 8 7 7 8 8 9 9 8
4 5 2 3 3 2 4 5 5 5 5 4 5 5 6 6 6 6 6 5 12 13 12 11 10 9 11 11 11 10 10 9 10 9 8 8 8 8 9 10 10 10 9
5 4 2 3 2 3 3 3 3 2 4 3 2 5 6 6 8 7 7 5 5 9 13 14 12 11 11 11 10 11 10 10 10 9 9 9 9 10 10 10 10 11 10
6 6 3 2 3 2 1 3 1 4 4 5 5 5 5 6 8 9 8 7 6 5 5 17 13 10 11 11 11 11 11 10 10 10 10 9 9 9 9 10 10 10 11
6 5 3 1 4 2 2 2 3 3 5 3 4 2 4 6 7 7 7 7 8 7 7 5 9 11 14 12 11 10 10 10 9 9 9 9 9 9 10 10 10 11 11
7 5 5 3 3 4 3 3 3 2 5 4 3 3 2 7 9 8 7 7 8 8 8 6 6 6 10 14 11 10 10 10 9 8 7 8 8 8 9 10 11 11 11
6 6 5 4 2 2 3 4 3 3 5 3 2 3 4 5 7 9 8 8 8 8 8 9 9 7 7 6 11 14 12 11 9 8 7 7 7 8 9 10 10 12 12
8 7 6 6 3 5 3 2 3 4 4 3 5 4 3 2 1 8 9 8 9 8 8 7 7 8 8 9 6 11 13 10 10 9 8 7 7 8 8 9 10 12 12
9 8 8 6 6 5 3 3 4 6 2 4 3 4 5 6 3 3 5 7 8 9 9 7 7 9 9 8 9 4 11 11 10 9 9 8 8 7 8 8 10 11 11
7 9 8 7 6 7 3 4 4 4 5 6 3 2 3 5 5 6 4 5 5 8 8 8 8 7 10 9 8 8 12 10 10 9 9 7 6 7 8 8 8 11 11
6 9 9 7 6 5 6 6 5 5 5 4 6 1 7 1 4 5 6 6 4 4 7 8 8 7 7 8 9 7 9 10 11 10 9 8 6 5 8 9 8 11 11
7 9 8 7 6 7 7 7 5 6 5 4 5 6 6 4 3 3 4 6 4 3 5 7 7 8 8 8 8 10 14 11 11 11 10 8 7 4 4 4 6 9 13
9 6 7 7 7 7 7 6 5 6 5 5 7 6 6 5 4 4 5 3 8 5 4 8 5 7 7 8 1 7 8 13 11 10 9 8 7 6 4 4 3 3 5
5 6 7 8 8 7 8 7 5 8 5 5 5 5 6 5 5 6 5 5 5 8 4 6 3 4 5 5 5 7 8 13 11 9 9 8 8 7 6 5 3 3 3
8 6 9 8 8 7 8 8 6 7 6 6 6 5 5 5 5 3 8 7 6 6 6 3 2 2 1 3 2 6 3 8 11 12 11 11 9 9 8 7 5 4 4
10 9 7 7 8 8 6 6 5 3 4 5 5 5 7 5 6 6 7 7 7 7 8 7 4 4 4 5 4 5 4 6 9 10 11 11 11 9 9 7 6 5 5
11 9 9 8 7 7 6 6 6 4 5 7 7 6 8 7 8 8 7 8 6 8 8 9 7 4 7 5 5 7 5 8 6 12 10 10 10 10 10 9 8 7 6
11 10 10 10 9 8 7 7 7 8 8 8 8 9 9 9 9 8 6 8 9 10 6 9 9 5 4 3 4 6 7 8 6 12 10 9 10 11 11 10 10 9 9
11 11 10 9 10 9 9 9 9 10 10 10 10 10 10 10 11 10 9 10 9 9 9 8 9 6 7 5 6 6 6 7 8 9 11 10 13 16 14 12 11 11 11
12 11 11 11 11 10 10 11 12 11 11 11 11 11 12 12 9 9 8 10 8 9 9 8 11 6 8 6 6 6 9 6 9 9 8 8 10 10 11 14 13 17 14
12 13 13 13 12 10 8 8 9 9 11 11 11 11 12 10 12 13 14 14 13 11 12 10 11 12 7 8 7 9 7 7 5 10 11 11 7 9 10 9 14 11 17
12 13 12 11 11 11 3 6 5 10 11 11 11 11 11 10 10 12 12 15 14 15 17 14 14 13 12 11 8 10 8 10 10 3 10 9 10 11 7 5 10 14 14
12 12 11 11 11 6 4 3 2 8 10 11 11 11 12 12 11 8 12 14 14 14 15 13 16 16 15 12 10 10 11 11 10 7 8 8 6 8 7 8 15 16 14
11 12 11 11 10 5 5 2 4 6 7 8 9 10 12 13 10 7 11 14 16 15 12 14 13 11 9 5 8 7 8 8 8 9 8 8 5 8 7 9 9 15 14
11 9 10 9 3 7 6 2 3 6 6 7 8 10 10 12 12 11 11 13 15 15 14 15 12 12 13 14 11 13 10 9 9 8 9 8 9 6 6 6 8 8 8
Wind_Direction
228 275 265 260 234 252 213 189 215 218 210 222 199 208 235 185 185 182 161 163 196 204 208 199 199 197 199 202 207 207 210 217 223 228 230 232 229 239 242 238 247 247 242
252 245 249 211 178 204 248 265 204 229 222 231 205 205 214 200 188 229 192 158 185 204 207 196 199 201 204 209 212 210 213 219 224 228 236 240 244 243 242 238 237 244 238
220 286 235 301 231 254 256 222 209 218 250 208 214 184 201 195 210 200 217 199 163 193 206 210 212 210 212 214 217 217 218 224 224 229 238 241 237 248 249 249 245 241 237
249 239 164 266 349 229 280 248 209 157 227 228 207 221 198 198 199 195 219 217 216 181 189 201 206 209 214 219 221 222 225 217 222 225 228 235 243 244 241 243 240 238 234
222 263 266 34 247 225 275 312 241 239 181 218 205 211 220 218 199 198 207 213 220 235 221 173 193 206 218 220 218 221 226 221 218 218 225 232 237 241 243 239 237 235 233
221 237 249 307 253 220 255 288 319 309 293 287 252 203 243 203 206 210 206 214 214 223 234 210 185 200 203 219 216 216 225 224 216 218 223 229 231 232 235 234 231 235 232
205 218 253 201 231 248 271 256 233 207 276 245 299 219 219 240 207 213 211 219 214 214 224 225 235 252 185 195 211 216 223 228 230 230 228 232 237 238 236 232 230 227 230
208 211 243 231 222 236 236 244 237 248 247 227 236 238 206 209 214 219 218 223 219 219 221 221 241 239 266 243 181 199 212 221 228 231 233 232 233 241 238 235 231 225 223
220 226 225 250 229 265 248 238 240 265 305 251 270 278 284 324 183 182 213 226 217 222 230 219 223 226 232 248 155 183 196 209 224 232 239 233 235 248 245 242 235 228 222
217 218 210 221 230 258 324 240 228 298 287 293 187 232 295 344 297 204 201 207 205 224 230 248 223 217 227 235 218 299 168 201 213 231 239 228 241 248 249 246 240 225 222
227 204 200 211 227 234 222 277 272 255 265 279 275 223 235 242 223 285 282 172 201 219 224 222 245 220 212 230 241 210 184 201 209 217 218 234 244 249 259 253 245 228 226
216 215 204 219 231 252 241 235 258 259 276 298 318 136 272 272 270 239 248 263 282 229 216 209 232 233 232 226 224 97 171 194 211 208 200 216 228 246 277 247 236 227 222
223 193 209 216 230 209 242 249 246 240 240 250 250 247 237 267 297 269 301 286 252 233 230 228 208 232 228 236 245 190 176 198 212 198 194 202 209 225 260 272 265 253 223
201 171 195 230 235 251 234 231 241 255 226 240 242 239 268 237 249 257 273 305 294 214 225 258 190 223 231 236 67 149 224 185 197 184 181 190 206 206 235 251 283 298 235
204 200 212 219 222 231 239 239 224 228 236 234 234 243 256 324 320 306 256 262 289 296 290 144 254 194 247 219 243 240 236 161 171 168 178 193 207 203 213 218 236 258 273
215 208 214 212 220 225 244 235 225 192 224 239 231 204 235 204 234 225 274 247 252 260 268 301 228 138 242 240 200 250 244 147 156 176 181 188 203 207 205 204 219 235 255
217 220 222 226 228 227 231 229 242 246 243 239 265 242 246 245 257 218 261 250 244 243 257 262 218 192 219 232 243 228 221 232 167 182 184 197 194 201 204 196 210 227 242
220 224 225 232 230 228 224 231 243 277 229 238 240 252 246 247 237 249 234 268 287 292 266 261 261 228 223 215 225 223 217 230 233 157 190 195 199 199 207 207 212 228 241
222 221 221 226 227 230 223 226 237 243 249 253 259 255 260 253 250 262 251 243 240 231 234 265 269 226 247 214 225 226 219 244 226 142 196 202 205 214 216 214 216 219 228
218 222 225 229 231 233 236 246 241 241 250 255 253 250 249 248 249 253 249 249 260 268 251 252 256 244 230 172 232 225 217 226 230 219 204 227 204 212 217 217 221 222 222
215 220 224 230 234 237 240 232 241 244 247 251 249 247 244 247 255 258 261 248 253 243 260 262 268 234 232 200 222 231 245 225 226 237 231 234 211 214 214 219 235 221 218
215 218 226 232 240 247 236 218 260 261 254 255 259 255 255 237 233 231 234 243 258 256 255 257 255 276 288 250 234 243 230 219 240 200 231 235 226 225 227 217 197 201 202
215 220 227 233 239 242 181 192 194 257 268 262 262 268 272 270 257 259 233 233 242 233 237 255 254 256 258 253 254 237 221 229 238 163 207 243 207 229 237 240 169 178 185
209 213 219 222 230 231 57 38 287 255 258 268 272 272 271 272 269 281 275 269 254 242 224 226 235 251 254 255 246 240 250 240 248 244 194 252 208 229 234 241 191 190 193
204 208 214 216 224 146 87 69 274 255 267 284 288 290 290 284 296 25 286 267 266 263 255 228 247 252 262 265 258 239 232 232 236 236 193 243 202 239 234 232 225 191 196
204 214 214 217 202 155 145 97 325 279 274 283 288 267 233 253 15 7 319 287 277 274 273 272 248 238 241 244 216 239 229 219 229 239 189 210 226 215 223 219 236 204 211